Weather History for Jacksonville, IL

Change the Weather History Date:

Friday, May 31, 2013

  Actual Average (KSPI) Record (KSPI)
Temperature  
Mean Temperature 70 °F 68 °F  
Max Temperature 76 °F 79 °F 101 °F (1934)
Min Temperature 63 °F 57 °F 39 °F (1889)
Degree Days  
Heating Degree Days 0 2  
Month to date heating degree days 126  
Since 1 July heating degree days 5470  
Cooling Degree Days 4 5  
Month to date cooling degree days 84  
Year to date cooling degree days 104  
Growing Degree Days 20 (Base 50)    
Moisture  
Dew Point 65 °F    
Average Humidity 88    
Maximum Humidity 94    
Minimum Humidity 78    
Precipitation  
Precipitation 0.02 in 0.14 in 1.86 in (1899)
Month to date precipitation 4.24  
Year to date precipitation 14.01  
Snow  
Snow 0.00 in 0.00 in 0.00 in ()
Month to date snowfall 0.0  
Since 1 July snowfall 20.9  
Snow Depth -    
Sea Level Pressure  
Sea Level Pressure 29.82 in    
Wind  
Wind Speed 10 mph (SSE)    
Max Wind Speed 21 mph    
Max Gust Speed 31 mph    
Visibility 10 miles    
Events Rain , Thunderstorm    
T = Trace of Precipitation, MM = Missing Value Source: NWS Daily Summary

Daily Weather History Graph

Daily Weather History Graph

Search for Another Location

Airport:

Trip Planner

Search our weather history database for the weather conditions in past years. The results will help you decide how hot, cold, wet, or windy it might be!

Date:

Astronomy

May. 31, 2013 Rise Set
Actual Time 5:35 AM CDT 8:22 PM CDT
Civil Twilight 5:03 AM CDT 8:54 PM CDT
Nautical Twilight 4:23 AM CDT 9:34 PM CDT
Astronomical Twilight 3:37 AM CDT 10:20 PM CDT
Moon 12:57 AM CDT (5/31) 12:49 PM CDT (5/31)
Length of Visible Light 15h 51m
Length of Day
14h 47m
Waning Gibbous, 51% of the Moon is Illuminated
May 31
Waning Gibbous
May 31
Last Quarter
Jun 8
New
Jun 16
First Quarter
Jun 23
Full

Hourly Weather History & Observations

Time (CDT) Temp. Dew Point Humidity Pressure Visibility Wind Dir Wind Speed Gust Speed Precip Events Conditions
12:15 AM 64.6 °F 62.4 °F 93% 29.80 in 10.0 mi SE 17.3 mph 20.7 mph N/A Rain Light Rain
12:35 AM 64.9 °F 62.4 °F 92% 29.84 in 10.0 mi South 5.8 mph - N/A   Clear
12:55 AM 64.9 °F 62.2 °F 91% 29.85 in 10.0 mi South 5.8 mph - N/A   Clear
1:15 AM 64.9 °F 62.2 °F 91% 29.85 in 10.0 mi SSE 8.1 mph - N/A   Clear
1:35 AM 65.3 °F 62.8 °F 92% 29.85 in 10.0 mi SSE 8.1 mph - N/A   Clear
1:55 AM 65.3 °F 63.0 °F 92% 29.84 in 10.0 mi SSE 8.1 mph - N/A   Clear
2:15 AM 65.3 °F 63.0 °F 92% 29.83 in 10.0 mi South 5.8 mph - N/A   Scattered Clouds
2:35 AM 65.3 °F 62.6 °F 91% 29.82 in 10.0 mi South 8.1 mph - N/A   Scattered Clouds
2:55 AM 65.3 °F 62.6 °F 91% 29.83 in 10.0 mi SSE 8.1 mph - N/A   Clear
3:15 AM 64.9 °F 62.6 °F 92% 29.82 in 10.0 mi SSE 9.2 mph - N/A   Clear
3:35 AM 64.6 °F 62.6 °F 93% 29.82 in 10.0 mi SSE 8.1 mph - N/A   Clear
3:55 AM 64.4 °F 62.2 °F 93% 29.82 in 10.0 mi South 9.2 mph - N/A   Clear
4:15 AM 64.4 °F 62.1 °F 92% 29.83 in 10.0 mi SSE 5.8 mph - N/A   Clear
4:35 AM 64.0 °F 61.9 °F 93% 29.83 in 10.0 mi SSE 4.6 mph - N/A   Clear
4:55 AM 63.9 °F 61.7 °F 93% 29.82 in 10.0 mi SE 4.6 mph - N/A   Clear
5:15 AM 63.7 °F 61.7 °F 93% 29.82 in 10.0 mi ESE 4.6 mph - N/A   Clear
5:35 AM 63.3 °F 61.5 °F 94% 29.82 in 10.0 mi SE 4.6 mph - N/A   Clear
5:55 AM 63.5 °F 61.7 °F 94% 29.83 in 10.0 mi SE 9.2 mph - N/A   Clear
6:15 AM 63.5 °F 61.9 °F 94% 29.84 in 10.0 mi SE 9.2 mph - N/A   Clear
6:35 AM 64.0 °F 62.2 °F 94% 29.85 in 10.0 mi SE 8.1 mph - N/A   Mostly Cloudy
6:55 AM 64.4 °F 62.6 °F 94% 29.87 in 10.0 mi SE 6.9 mph - N/A   Overcast
7:15 AM 65.1 °F 62.6 °F 92% 29.89 in 10.0 mi SSE 5.8 mph - N/A   Overcast
7:35 AM 66.2 °F 63.0 °F 89% 29.89 in 10.0 mi SSE 6.9 mph - N/A   Mostly Cloudy
7:55 AM 68.0 °F 63.5 °F 85% 29.89 in 10.0 mi SSE 5.8 mph - N/A   Scattered Clouds
8:15 AM 68.9 °F 63.9 °F 84% 29.88 in 10.0 mi South 8.1 mph - N/A   Scattered Clouds
8:35 AM 68.4 °F 63.5 °F 84% 29.89 in 10.0 mi South 5.8 mph - N/A   Mostly Cloudy
8:55 AM 69.3 °F 63.3 °F 81% 29.90 in 10.0 mi SSW 9.2 mph - N/A   Mostly Cloudy
9:15 AM 69.8 °F 64.2 °F 82% 29.90 in 10.0 mi SW 8.1 mph - N/A   Mostly Cloudy
9:35 AM 70.3 °F 63.5 °F 79% 29.90 in 10.0 mi SSW 8.1 mph - N/A   Scattered Clouds
9:55 AM 69.8 °F 63.7 °F 81% 29.90 in 10.0 mi SSW 9.2 mph - N/A Rain , Thunderstorm Light Thunderstorms and Rain
10:15 AM 69.1 °F 63.7 °F 83% 29.90 in 10.0 mi SW 6.9 mph - N/A Rain , Thunderstorm Light Thunderstorms and Rain
10:35 AM 67.5 °F 64.0 °F 89% 29.93 in 3.0 mi WSW 8.1 mph - N/A Rain , Thunderstorm Heavy Thunderstorms and Rain
10:55 AM 66.2 °F 64.0 °F 93% 29.93 in 5.0 mi SSW 3.5 mph - N/A Rain , Thunderstorm Rain
11:15 AM 65.8 °F 63.5 °F 92% 29.92 in 2.5 mi SE 3.5 mph - N/A Rain , Thunderstorm Heavy Thunderstorms and Rain
11:35 AM 65.5 °F 63.7 °F 94% 29.85 in 4.0 mi East 16.1 mph - N/A Rain Rain
11:55 AM 65.7 °F 64.0 °F 94% 29.86 in 7.0 mi ESE 9.2 mph - N/A Rain Light Rain
12:15 PM 66.4 °F 64.6 °F 94% 29.84 in 10.0 mi ESE 6.9 mph - N/A Rain Light Rain
12:35 PM 68.0 °F 65.5 °F 92% 29.81 in 10.0 mi ESE 19.6 mph 23.0 mph N/A   Clear
12:55 PM 69.1 °F 66.4 °F 91% 29.81 in 10.0 mi ESE 18.4 mph 23.0 mph N/A   Scattered Clouds
1:15 PM 69.3 °F 66.4 °F 91% 29.80 in 10.0 mi ESE 16.1 mph - N/A   Scattered Clouds
1:35 PM 70.0 °F 66.9 °F 90% 29.80 in 10.0 mi SE 15.0 mph 23.0 mph N/A   Scattered Clouds
1:55 PM 70.7 °F 67.1 °F 88% 29.80 in 10.0 mi SSE 13.8 mph 21.9 mph N/A   Mostly Cloudy
2:15 PM 71.8 °F 67.8 °F 87% 29.80 in 10.0 mi SSE 11.5 mph 20.7 mph N/A Thunderstorm Scattered Clouds
2:35 PM 72.5 °F 68.0 °F 86% 29.79 in 10.0 mi SSE 17.3 mph 23.0 mph N/A   Mostly Cloudy
2:55 PM 73.0 °F 68.0 °F 84% 29.78 in 10.0 mi SSE 18.4 mph 25.3 mph N/A Thunderstorm Mostly Cloudy
3:15 PM 73.4 °F 68.5 °F 85% 29.77 in 10.0 mi South 18.4 mph 24.2 mph N/A   Mostly Cloudy
3:35 PM 75.2 °F 69.3 °F 82% 29.78 in 10.0 mi South 19.6 mph 31.1 mph N/A   Scattered Clouds
3:55 PM 75.6 °F 69.4 °F 81% 29.78 in 10.0 mi South 15.0 mph 31.1 mph N/A   Scattered Clouds
4:15 PM 75.4 °F 69.1 °F 81% 29.78 in 10.0 mi South 16.1 mph 19.6 mph N/A   Mostly Cloudy
4:35 PM 75.6 °F 69.1 °F 80% 29.78 in 10.0 mi SSW 9.2 mph 17.3 mph N/A   Overcast
4:55 PM 74.3 °F 68.5 °F 82% 29.78 in 10.0 mi West 3.5 mph - N/A   Overcast
5:15 PM 74.5 °F 68.9 °F 83% 29.77 in 10.0 mi WSW 3.5 mph - N/A   Overcast
5:35 PM 74.8 °F 69.4 °F 83% 29.77 in 10.0 mi South 8.1 mph - N/A   Overcast
5:55 PM 75.9 °F 69.8 °F 81% 29.77 in 10.0 mi South 8.1 mph - N/A   Overcast
6:15 PM 76.1 °F 69.8 °F 81% 29.75 in 10.0 mi SSE 11.5 mph - N/A   Mostly Cloudy
6:35 PM 75.9 °F 69.8 °F 81% 29.75 in 10.0 mi South 8.1 mph - N/A   Mostly Cloudy
6:55 PM 75.7 °F 69.4 °F 81% 29.74 in 10.0 mi South 5.8 mph - N/A   Scattered Clouds
7:15 PM 75.4 °F 69.6 °F 82% 29.77 in 10.0 mi SSW 4.6 mph - N/A   Mostly Cloudy
7:35 PM 76.1 °F 68.9 °F 78% 29.76 in 10.0 mi South 12.7 mph 26.5 mph N/A Thunderstorm Thunderstorm
7:55 PM 75.2 °F 69.4 °F 82% 29.80 in 10.0 mi SW 6.9 mph - N/A Rain , Thunderstorm Thunderstorms and Rain
8:15 PM 73.9 °F 70.3 °F 88% 29.80 in 7.0 mi WSW 3.5 mph - N/A Rain , Thunderstorm Thunderstorms and Rain
8:35 PM 72.7 °F 69.8 °F 91% 29.82 in 7.0 mi SSW 19.6 mph 24.2 mph 0.01 in Rain , Thunderstorm Heavy Thunderstorms and Rain
8:55 PM 67.8 °F 63.5 °F 86% 29.77 in 10.0 mi SE 12.7 mph - 0.01 in Rain , Thunderstorm Light Thunderstorms and Rain
9:15 PM 67.1 °F 61.7 °F 83% 29.70 in 10.0 mi ESE 13.8 mph - N/A Rain , Thunderstorm Light Thunderstorms and Rain
9:35 PM 67.6 °F 62.1 °F 82% 29.69 in 10.0 mi SE 10.4 mph - N/A Thunderstorm Scattered Clouds
9:55 PM 67.3 °F 62.2 °F 84% 29.74 in 10.0 mi Calm Calm - N/A Thunderstorm Mostly Cloudy
10:15 PM 66.7 °F 62.1 °F 85% 29.76 in 10.0 mi SE 3.5 mph - N/A Rain Light Rain
10:35 PM 66.4 °F 62.6 °F 88% 29.79 in 10.0 mi SSW 4.6 mph - N/A   Scattered Clouds
10:55 PM 66.4 °F 63.0 °F 89% 29.81 in 10.0 mi SW 10.4 mph - N/A Rain , Thunderstorm Light Thunderstorms and Rain
11:15 PM 67.1 °F 63.9 °F 89% 29.79 in 10.0 mi South 16.1 mph 20.7 mph 0.01 in Rain , Thunderstorm Light Thunderstorms and Rain
11:35 PM 67.1 °F 64.0 °F 90% 29.83 in 10.0 mi SSW 20.7 mph 28.8 mph 0.01 in Rain Light Rain
11:55 PM 66.7 °F 64.0 °F 91% 29.81 in 10.0 mi South 18.4 mph 25.3 mph 0.01 in Rain Rain